Regional Weather Roundup
Issued by NWS

Home | Current Version | Previous Version | Text Only | Print | Product List | Glossary Off
Versions: 1 2 3 4 5 6 7 8 9 10 11 12 13 14 15 16 17 18 19 20 21 22 23 24 25 26 27 28 29 30 31 32 33 34 35 36 37 38 39 40 41 42 43 44 45 46 47 48 49 50

000
ASUS43 KLSX 281059
RWRMO

WEATHER SUMMARY FOR MISSOURI
NATIONAL WEATHER SERVICE SPRINGFIELD MO
500 AM CST FRI NOV 28 2014

NOTE: "FAIR" INDICATES FEW OR NO CLOUDS BELOW 12,000 FEET WITH NO
       SIGNIFICANT WEATHER AND/OR OBSTRUCTIONS TO VISIBILITY.
       CURRENT SKY AND/OR WEATHER CONDITIONS ARE NOT AVAILABLE FOR
       CHILLICOTHE AND FARMINGTON.

MOZ001>031-035>038-043-044-053-054-281200-
...NORTHERN AND WESTERN MISSOURI...

CITY           SKY/WX    TMP DP  RH WIND       PRES   REMARKS
KANSAS CTY INT CLEAR     33  23  66 S14       30.05F WCI  23
KANSAS C DTWN  CLEAR     35  23  61 S12       30.08F WCI  27
LEE`S SUMMIT   CLEAR     34  23  64 S12G20    30.09F WCI  25
ST JOSEPH      CLEAR     31  23  72 S12       30.04F WCI  22
CHILLICOTHE      N/A     30  23  75 SE10      30.11F WCI  21
KIRKSVILLE     CLEAR     22  20  92 S14       30.14F WCI   9

$$
MOZ066>068-077>081-088>096-101>105-281200-
...SOUTHWEST MISSOURI...

CITY           SKY/WX    TMP DP  RH WIND       PRES   REMARKS
SPRINGFIELD    CLEAR     33  24  69 S16       30.18F WCI  23
JOPLIN         CLEAR     41  25  53 S18G25    30.16F

$$
MOZ032>034-039>042-045>050-055>058-069>072-281200-
...CENTRAL MISSOURI...

CITY           SKY/WX    TMP DP  RH WIND       PRES   REMARKS
COLUMBIA       CLEAR     29  23  78 SE10      30.20F WCI  20
JEFFERSON CITY CLEAR     29  23  78 E7        30.22F WCI  22
ROLLA          CLEAR     28  22  78 SE10      30.21F WCI  19
SEDALIA        CLEAR     31  24  75 SE10      30.16F WCI  22
WHITEMAN AFB   CLEAR     31  24  73 S10       30.13F WCI  23
OSAGE BEACH    CLEAR     32  21  64 SE8       30.20F WCI  25

$$
MOZ051-052-059>065-281200-
...EAST CENTRAL MISSOURI...

CITY           SKY/WX    TMP DP  RH WIND       PRES   REMARKS
ST LOUIS INTL  PTCLDY    26  20  77 SE9       30.31F WCI  17
SPIRIT OF STL  CLEAR     26  21  81 SE8       30.30F WCI  18
ST CHARLES     CLEAR     22  19  89 E8        30.31F WCI  12

$$
MOZ072>076-082>087-097>100-106>115-281200-
...SOUTH CENTRAL AND SOUTHEAST MISSOURI...

CITY           SKY/WX    TMP DP  RH WIND       PRES   REMARKS
CAPE GIRARDEAU CLEAR     28  25  88 S5        30.40S WCI  23
FARMINGTON     CLEAR     27  25  93 SE8       30.31F WCI  18
POPLAR BLUFF   CLEAR     25  21  85 CALM      30.38F FOG
WEST PLAINS    CLEAR     30  24  78 S6        30.28F WCI  24

$$



USA.gov is the U.S. government's official web portal to all federal, state and local government web resources and services.